Погода в Ярославе

Польша     50°02′37″N   22°40′10″E
темп.,
°C
ветер,
м/с
пор.,
м/с
влажн.,
%
обл.,
%
осадки,
мм/ч
давл.,
гПа
погр.,
м
20 июня, вс
вс2023:00+17вюв37945 0.0 1017121
02:00+16вюв36941 0.0 1016129
05:00+14юв36950 0.0 1016120
08:00+19вюв47770 0.0 1015401
11:00+24юв456252 0.0 10151067
14:00+26вюв345676 0.0 10131423
17:00+24в4676100 1.7 1013720
20:00+21в3788100 6.3 1012144
21 июня, пн
пн2123:00+18вюв359499 0.0 1012100
02:00+17в239649 0.0 101164
05:00+16вюв369818 0.0 1011144
08:00+20вюв578840 0.0 1011486
11:00+24юв566960 0.0 10101154
14:00+27вюв44605 0.1 10091150
17:00+27юв446411 0.3 10091120
20:00+22вюв49862 0.6 1009227
22 июня, вт
вт2223:00+19юв36940 0.0 1009107
02:00+18юв339435 0.0 100947
05:00+18ю2290100 0.0 101017
08:00+23ююз237399 0.0 1011309
11:00+27з226470 0.0 1011992
14:00+29ю225711 0.2 10111490
17:00+29ююв225418 0.0 10111359
20:00+24ююв337767 0.3 101248
23 июня, ср
ср2323:00+21юв338856 0.0 101249
02:00+20юв23938 0.0 101239
05:00+19вюв339430 0.0 101358
08:00+24юв457819 0.0 1013363
11:00+28юв33604 0.0 1013794
14:00+30вюв43531 0.0 10131235
17:00+30вюв32540 0.0 10131011
20:00+25юв34784 0.0 101462
24 июня, чт
чт2423:00+20зсз71391100 1.3 1016311
02:00+19сз2386100 1.7 101753
05:00+17зсз24938 0.0 101884
08:00+22сз348542 0.0 1018456
11:00+26зсз22660 0.0 1018866
14:00+29зюз11560 0.0 10171142
17:00+30в11550 0.0 10151037
20:00+26юв35770 0.0 101492